Time,TemperatureF,DewpointF,PressureIn,WindDirection,WindDirectionDegrees,WindSpeedMPH,WindSpeedGustMPH,Humidity,HourlyPrecipIn,Conditions,Clouds,dailyrainin,SoftwareType,DateUTC
2013-01-27 00:04:00,13.5,1.0,30.23,SW,229,2.0,-999.0,58,-99.99,,,0.00,weatherlink.com 1.10,2013-01-27 05:04:00,
2013-01-27 00:19:00,13.7,2.0,30.22,West,269,5.0,-999.0,59,-99.99,,,0.00,weatherlink.com 1.10,2013-01-27 05:19:00,
2013-01-27 00:34:00,13.8,2.0,30.22,West,272,0.0,-999.0,59,-99.99,,,0.00,weatherlink.com 1.10,2013-01-27 05:34:00,
2013-01-27 00:49:00,13.6,2.0,30.23,ENE,76,1.0,-999.0,60,-99.99,,,0.00,weatherlink.com 1.10,2013-01-27 05:49:00,
2013-01-27 01:04:00,13.7,2.0,30.24,NW,317,3.0,-999.0,60,-99.99,,,0.00,weatherlink.com 1.10,2013-01-27 06:04:00,
2013-01-27 01:20:00,13.6,2.0,30.25,West,280,0.0,-999.0,61,-99.99,,,0.00,weatherlink.com 1.10,2013-01-27 06:20:00,
2013-01-27 01:35:00,13.6,2.0,30.25,NW,315,2.0,-999.0,61,-99.99,,,0.00,weatherlink.com 1.10,2013-01-27 06:35:00,
2013-01-27 01:50:00,13.5,3.0,30.26,WSW,238,3.0,-999.0,62,-99.99,,,0.00,weatherlink.com 1.10,2013-01-27 06:50:00,
2013-01-27 02:05:00,13.4,3.0,30.26,West,264,4.0,-999.0,63,-99.99,,,0.00,weatherlink.com 1.10,2013-01-27 07:05:00,
2013-01-27 02:20:00,13.3,3.0,30.26,NNW,333,1.0,-999.0,63,-99.99,,,0.00,weatherlink.com 1.10,2013-01-27 07:20:00,
2013-01-27 02:35:00,13.3,3.0,30.26,WNW,291,0.0,-999.0,63,-99.99,,,0.00,weatherlink.com 1.10,2013-01-27 07:35:00,
2013-01-27 02:50:00,13.7,3.0,30.27,WNW,300,0.0,-999.0,62,-99.99,,,0.00,weatherlink.com 1.10,2013-01-27 07:50:00,
2013-01-27 03:05:00,13.5,3.0,30.27,West,263,0.0,-999.0,63,-99.99,,,0.00,weatherlink.com 1.10,2013-01-27 08:05:00,
2013-01-27 03:20:00,13.5,3.0,30.27,WNW,288,0.0,-999.0,64,-99.99,,,0.00,weatherlink.com 1.10,2013-01-27 08:20:00,
2013-01-27 03:35:00,13.7,4.0,30.28,WSW,245,0.0,-999.0,64,-99.99,,,0.00,weatherlink.com 1.10,2013-01-27 08:35:00,
2013-01-27 03:50:00,13.6,3.0,30.27,NNE,19,1.0,-999.0,64,-99.99,,,0.00,weatherlink.com 1.10,2013-01-27 08:50:00,
2013-01-27 04:05:00,13.5,3.0,30.29,West,274,1.0,-999.0,64,-99.99,,,0.00,weatherlink.com 1.10,2013-01-27 09:05:00,
2013-01-27 04:20:00,13.6,3.0,30.29,NE,36,0.0,-999.0,64,-99.99,,,0.00,weatherlink.com 1.10,2013-01-27 09:20:00,
2013-01-27 04:35:00,13.8,4.0,30.29,WSW,244,1.0,-999.0,64,-99.99,,,0.00,weatherlink.com 1.10,2013-01-27 09:35:00,
2013-01-27 04:51:00,13.9,3.0,30.29,WSW,257,1.0,-999.0,63,-99.99,,,0.00,weatherlink.com 1.10,2013-01-27 09:51:00,
2013-01-27 05:06:00,14.0,3.0,30.29,West,260,0.0,-999.0,62,-99.99,,,0.00,weatherlink.com 1.10,2013-01-27 10:06:00,
2013-01-27 05:21:00,13.9,3.0,30.30,NW,322,3.0,-999.0,62,-99.99,,,0.00,weatherlink.com 1.10,2013-01-27 10:21:00,
2013-01-27 05:36:00,13.9,3.0,30.30,WSW,237,0.0,-999.0,62,-99.99,,,0.00,weatherlink.com 1.10,2013-01-27 10:36:00,
2013-01-27 05:51:00,14.0,3.0,30.30,ENE,61,0.0,-999.0,61,-99.99,,,0.00,weatherlink.com 1.10,2013-01-27 10:51:00,
2013-01-27 06:06:00,13.9,3.0,30.32,WSW,254,3.0,-999.0,62,-99.99,,,0.00,weatherlink.com 1.10,2013-01-27 11:06:00,
2013-01-27 06:21:00,13.7,3.0,30.32,WSW,242,1.0,-999.0,62,-99.99,,,0.00,weatherlink.com 1.10,2013-01-27 11:21:00,
2013-01-27 06:36:00,13.7,2.0,30.33,West,270,0.0,-999.0,61,-99.99,,,0.00,weatherlink.com 1.10,2013-01-27 11:36:00,
2013-01-27 06:51:00,13.5,2.0,30.34,WNW,292,0.0,-999.0,61,-99.99,,,0.00,weatherlink.com 1.10,2013-01-27 11:51:00,
2013-01-27 07:06:00,13.4,2.0,30.34,SW,234,1.0,-999.0,61,-99.99,,,0.00,weatherlink.com 1.10,2013-01-27 12:06:00,
2013-01-27 07:21:00,13.2,2.0,30.35,WSW,247,0.0,-999.0,61,-99.99,,,0.00,weatherlink.com 1.10,2013-01-27 12:21:00,
2013-01-27 07:36:00,13.0,3.0,30.35,SW,215,0.0,-999.0,63,-99.99,,,0.00,weatherlink.com 1.10,2013-01-27 12:36:00,
2013-01-27 07:51:00,12.8,2.0,30.36,SW,222,0.0,-999.0,63,-99.99,,,0.00,weatherlink.com 1.10,2013-01-27 12:51:00,
2013-01-27 08:06:00,13.3,2.0,30.36,WSW,252,0.0,-999.0,62,-99.99,,,0.00,weatherlink.com 1.10,2013-01-27 13:06:00,
2013-01-27 08:21:00,14.1,2.0,30.37,SSW,192,0.0,-999.0,59,-99.99,,,0.00,weatherlink.com 1.10,2013-01-27 13:21:00,
2013-01-27 08:36:00,15.2,2.0,30.37,NW,305,3.0,-999.0,57,-99.99,,,0.00,weatherlink.com 1.10,2013-01-27 13:36:00,
2013-01-27 08:51:00,16.4,2.0,30.37,WNW,298,2.0,-999.0,54,-99.99,,,0.00,weatherlink.com 1.10,2013-01-27 13:51:00,
2013-01-27 09:06:00,17.7,1.0,30.38,NE,53,0.0,-999.0,48,-99.99,,,0.00,weatherlink.com 1.10,2013-01-27 14:06:00,
2013-01-27 09:21:00,18.4,1.0,30.39,East,83,1.0,-999.0,47,-99.99,,,0.00,weatherlink.com 1.10,2013-01-27 14:21:00,
2013-01-27 09:36:00,19.2,1.0,30.39,NNW,336,0.0,-999.0,45,-99.99,,,0.00,weatherlink.com 1.10,2013-01-27 14:36:00,
2013-01-27 09:51:00,19.7,0.0,30.40,South,182,2.0,-999.0,43,-99.99,,,0.00,weatherlink.com 1.10,2013-01-27 14:51:00,
2013-01-27 10:06:00,20.5,1.0,30.40,West,259,2.0,-999.0,42,-99.99,,,0.00,weatherlink.com 1.10,2013-01-27 15:06:00,
2013-01-27 10:21:00,21.5,1.0,30.41,NNW,347,1.0,-999.0,40,-99.99,,,0.00,weatherlink.com 1.10,2013-01-27 15:21:00,
2013-01-27 10:36:00,22.0,1.0,30.41,WNW,297,6.0,-999.0,40,-99.99,,,0.00,weatherlink.com 1.10,2013-01-27 15:36:00,
2013-01-27 10:52:00,23.3,1.0,30.40,North,5,2.0,-999.0,38,-99.99,,,0.00,weatherlink.com 1.10,2013-01-27 15:52:00,
2013-01-27 11:07:00,23.4,1.0,30.40,WSW,245,0.0,-999.0,38,-99.99,,,0.00,weatherlink.com 1.10,2013-01-27 16:07:00,
2013-01-27 11:22:00,24.3,1.0,30.40,SSW,205,6.0,-999.0,36,-99.99,,,0.00,weatherlink.com 1.10,2013-01-27 16:22:00,
2013-01-27 11:37:00,24.4,0.0,30.40,NNE,22,0.0,-999.0,35,-99.99,,,0.00,weatherlink.com 1.10,2013-01-27 16:37:00,
2013-01-27 11:52:00,25.0,1.0,30.39,ENE,71,1.0,-999.0,36,-99.99,,,0.00,weatherlink.com 1.10,2013-01-27 16:52:00,
2013-01-27 12:07:00,25.9,1.0,30.39,South,172,6.0,-999.0,34,-99.99,,,0.00,weatherlink.com 1.10,2013-01-27 17:07:00,
2013-01-27 12:22:00,26.6,1.0,30.39,NW,323,5.0,-999.0,33,-99.99,,,0.00,weatherlink.com 1.10,2013-01-27 17:22:00,
2013-01-27 12:37:00,27.0,0.0,30.38,SW,232,0.0,-999.0,31,-99.99,,,0.00,weatherlink.com 1.10,2013-01-27 17:37:00,
2013-01-27 12:52:00,27.9,1.0,30.38,North,350,4.0,-999.0,31,-99.99,,,0.00,weatherlink.com 1.10,2013-01-27 17:52:00,
2013-01-27 13:07:00,28.1,1.0,30.38,WNW,284,1.0,-999.0,31,-99.99,,,0.00,weatherlink.com 1.10,2013-01-27 18:07:00,
2013-01-27 13:22:00,28.1,0.0,30.38,WNW,292,4.0,-999.0,30,-99.99,,,0.00,weatherlink.com 1.10,2013-01-27 18:22:00,
2013-01-27 13:37:00,29.1,1.0,30.37,ENE,67,1.0,-999.0,30,-99.99,,,0.00,weatherlink.com 1.10,2013-01-27 18:37:00,
2013-01-27 13:52:00,29.1,1.0,30.37,NW,324,4.0,-999.0,30,-99.99,,,0.00,weatherlink.com 1.10,2013-01-27 18:52:00,
2013-01-27 14:07:00,29.0,1.0,30.37,NW,315,2.0,-999.0,30,-99.99,,,0.00,weatherlink.com 1.10,2013-01-27 19:07:00,
2013-01-27 14:22:00,29.4,1.0,30.37,NE,34,0.0,-999.0,30,-99.99,,,0.00,weatherlink.com 1.10,2013-01-27 19:22:00,
2013-01-27 14:37:00,29.3,1.0,30.37,ENE,60,1.0,-999.0,30,-99.99,,,0.00,weatherlink.com 1.10,2013-01-27 19:37:00,
2013-01-27 14:52:00,29.5,2.0,30.37,NW,304,2.0,-999.0,30,-99.99,,,0.00,weatherlink.com 1.10,2013-01-27 19:52:00,
2013-01-27 15:07:00,29.3,1.0,30.37,NW,307,0.0,-999.0,30,-99.99,,,0.00,weatherlink.com 1.10,2013-01-27 20:07:00,
2013-01-27 15:22:00,29.5,1.0,30.37,WNW,298,0.0,-999.0,29,-99.99,,,0.00,weatherlink.com 1.10,2013-01-27 20:22:00,
2013-01-27 15:38:00,29.4,0.0,30.37,SSW,201,1.0,-999.0,28,-99.99,,,0.00,weatherlink.com 1.10,2013-01-27 20:38:00,
2013-01-27 15:53:00,29.0,-1.0,30.38,WNW,292,3.0,-999.0,28,-99.99,,,0.00,weatherlink.com 1.10,2013-01-27 20:53:00,
2013-01-27 16:08:00,28.7,-1.0,30.37,ENE,72,0.0,-999.0,28,-99.99,,,0.00,weatherlink.com 1.10,2013-01-27 21:08:00,
2013-01-27 16:23:00,28.3,0.0,30.39,WSW,237,1.0,-999.0,29,-99.99,,,0.00,weatherlink.com 1.10,2013-01-27 21:23:00,
2013-01-27 16:38:00,27.9,0.0,30.39,West,278,0.0,-999.0,30,-99.99,,,0.00,weatherlink.com 1.10,2013-01-27 21:38:00,
2013-01-27 16:53:00,27.4,0.0,30.40,South,191,0.0,-999.0,30,-99.99,,,0.00,weatherlink.com 1.10,2013-01-27 21:53:00,
2013-01-27 17:08:00,26.8,0.0,30.40,SW,223,0.0,-999.0,31,-99.99,,,0.00,weatherlink.com 1.10,2013-01-27 22:08:00,
2013-01-27 17:23:00,26.2,-1.0,30.41,SW,236,0.0,-999.0,31,-99.99,,,0.00,weatherlink.com 1.10,2013-01-27 22:23:00,
2013-01-27 17:38:00,25.8,-2.0,30.41,WNW,301,5.0,-999.0,30,-99.99,,,0.00,weatherlink.com 1.10,2013-01-27 22:38:00,
2013-01-27 17:53:00,25.2,-2.0,30.43,West,273,0.0,-999.0,31,-99.99,,,0.00,weatherlink.com 1.10,2013-01-27 22:53:00,
2013-01-27 18:08:00,24.8,-2.0,30.43,West,273,0.0,-999.0,31,-99.99,,,0.00,weatherlink.com 1.10,2013-01-27 23:08:00,
2013-01-27 18:23:00,24.7,-2.0,30.43,East,90,1.0,-999.0,31,-99.99,,,0.00,weatherlink.com 1.10,2013-01-27 23:23:00,
2013-01-27 18:38:00,24.2,-3.0,30.44,SSE,151,0.0,-999.0,31,-99.99,,,0.00,weatherlink.com 1.10,2013-01-27 23:38:00,
2013-01-27 18:53:00,23.8,-4.0,30.44,West,266,0.0,-999.0,30,-99.99,,,0.00,weatherlink.com 1.10,2013-01-27 23:53:00,
2013-01-27 19:09:00,23.7,-4.0,30.45,West,275,1.0,-999.0,30,-99.99,,,0.00,weatherlink.com 1.10,2013-01-28 00:09:00,
2013-01-27 19:24:00,23.4,-4.0,30.45,WSW,258,0.0,-999.0,30,-99.99,,,0.00,weatherlink.com 1.10,2013-01-28 00:24:00,
2013-01-27 19:39:00,23.3,-3.0,30.44,WNW,296,0.0,-999.0,31,-99.99,,,0.00,weatherlink.com 1.10,2013-01-28 00:39:00,
2013-01-27 19:54:00,22.9,-2.0,30.45,NNW,329,0.0,-999.0,33,-99.99,,,0.00,weatherlink.com 1.10,2013-01-28 00:54:00,
2013-01-27 20:09:00,22.2,-2.0,30.45,NW,304,0.0,-999.0,34,-99.99,,,0.00,weatherlink.com 1.10,2013-01-28 01:09:00,
2013-01-27 20:24:00,21.5,-2.0,30.45,NW,304,0.0,-999.0,36,-99.99,,,0.00,weatherlink.com 1.10,2013-01-28 01:24:00,
2013-01-27 20:39:00,20.6,-1.0,30.44,NW,304,0.0,-999.0,38,-99.99,,,0.00,weatherlink.com 1.10,2013-01-28 01:39:00,
2013-01-27 20:54:00,19.6,0.0,30.44,NW,304,0.0,-999.0,43,-99.99,,,0.00,weatherlink.com 1.10,2013-01-28 01:54:00,
2013-01-27 21:09:00,18.7,0.0,30.44,NW,304,1.0,-999.0,44,-99.99,,,0.00,weatherlink.com 1.10,2013-01-28 02:09:00,
2013-01-27 21:24:00,17.6,1.0,30.43,NW,304,0.0,-999.0,49,-99.99,,,0.00,weatherlink.com 1.10,2013-01-28 02:24:00,
2013-01-27 21:39:00,17.3,2.0,30.44,WNW,301,0.0,-999.0,52,-99.99,,,0.00,weatherlink.com 1.10,2013-01-28 02:39:00,
2013-01-27 21:54:00,18.5,0.0,30.44,SW,221,0.0,-999.0,45,-99.99,,,0.00,weatherlink.com 1.10,2013-01-28 02:54:00,
2013-01-27 22:09:00,19.1,0.0,30.44,SW,227,0.0,-999.0,44,-99.99,,,0.00,weatherlink.com 1.10,2013-01-28 03:09:00,
2013-01-27 22:25:00,18.9,0.0,30.44,SW,234,0.0,-999.0,43,-99.99,,,0.00,weatherlink.com 1.10,2013-01-28 03:25:00,
2013-01-27 22:40:00,18.7,0.0,30.45,SSW,212,0.0,-999.0,44,-99.99,,,0.00,weatherlink.com 1.10,2013-01-28 03:40:00,
2013-01-27 22:55:00,18.2,1.0,30.46,SSW,212,0.0,-999.0,46,-99.99,,,0.00,weatherlink.com 1.10,2013-01-28 03:55:00,
2013-01-27 23:10:00,18.0,1.0,30.46,WSW,248,0.0,-999.0,47,-99.99,,,0.00,weatherlink.com 1.10,2013-01-28 04:10:00,
2013-01-27 23:25:00,18.5,1.0,30.46,West,265,0.0,-999.0,47,-99.99,,,0.00,weatherlink.com 1.10,2013-01-28 04:25:00,
2013-01-27 23:40:00,18.6,3.0,30.45,West,265,0.0,-999.0,50,-99.99,,,0.00,weatherlink.com 1.10,2013-01-28 04:40:00,
2013-01-27 23:55:00,18.4,3.0,30.44,West,265,0.0,-999.0,52,-99.99,,,0.00,weatherlink.com 1.10,2013-01-28 04:55:00,